Find Starlink 31700

NORAD ID: 59436 Int'l Des: 2024-065 Owner: SPXS Country: US Constellation: starlink operational
LEOCIRCULAR

Live-Position

3D-Globus wird geladen...

Über Starlink 31700

Beschreibung wird geladen...

Nächste Überflüge

Passes for default location (London). Set your location on the main map for personalized predictions.

Höhenverlauf

Loading altitude history...

Zweizeiliger Elementsatz

1 59436U 24065R 26127.09223333 .00003595 00000-0 13344-3 0 9997
2 59436 53.1602 10.2190 0001023 99.5825 260.5291 15.30202766117874
Epoch: 7. Mai 2026 • Age: 6 hours

Aktueller Status

Höhe 475.6 km
Geschwindigkeit 7.63 km/s
Subsatellitenpunkt 22.12°N, 32.33°E
Startdatum 7. Apr. 2024
Alter 2 years
Typ internet

Technische Details

Klassifizierung Payload
Masse 730.00 kg
Trockenmasse 700.00 kg
Gesamtmasse 730.00 kg
Länge 0.30 m
Durchmesser 4.10 m
Spannweite 29.00 m
Form Box + pan
Hersteller SPXS
Bus-Typ Starlink V2M
Phasenstatus In Orbit
Besitzer/Staat SPXS/US

Most Searched